Regional Weather Roundup
Issued by NWS Columbia, SC

Home | Current Version | Previous Version | Text Only | Print | Product List | Glossary On
Versions: 1 2 3 4 5 6 7 8 9 10 11 12 13 14 15 16 17 18 19 20 21 22 23 24 25 26 27 28
000
ASUS42 KCAE 270610
RWRCAE
REGIONAL WEATHER ROUNDUP
NATIONAL WEATHER SERVICE COLUMBIA SC
200 AM EDT WED JUL 27 2016

NOTE: "FAIR" INDICATES FEW OR NO CLOUDS BELOW 12,000 FEET WITH NO
SIGNIFICANT WEATHER AND/OR OBSTRUCTIONS TO VISIBILITY.

NOT ALL STATIONS ARE QUALITY CONTROLLED BY THE NATIONAL
WEATHER SERVICE. USE DATA WITH CAUTION...ESPECIALLY
DEWPOINT OBSERVATIONS.

SCZ001>056-GAZ040-063>065-077-270700-
...UPSTATE SOUTH CAROLINA...

CITY           SKY/WX    TMP DP  RH WIND       PRES   REMARKS
ANDERSON       CLEAR     79  67  66 SW5       30.03F
6HR MIN TEMP:  77; 6HR MAX TEMP:  93;

LIBERTY          N/A     74  74  98 SW3       30.03S FOG
6HR MIN TEMP:  74; 6HR MAX TEMP:  87;

SPARTANBURG    CLEAR     79  70  73 SW3       30.01F
CLEMSON        CLEAR     82  66  58 VRB5      30.04F
6HR MIN TEMP:  82; 6HR MAX TEMP:  94;

GREENVILLE     CLEAR     82  67  60 S5        30.05S
6HR MIN TEMP:  82; 6HR MAX TEMP:  90;

GREENWOOD      CLEAR     81  67  62 SW9       30.04F
6HR MIN TEMP:  81; 6HR MAX TEMP:  92;

GREER          CLEAR     77  73  87 SW5       30.02F
6HR MIN TEMP:  77; 6HR MAX TEMP:  84;

ROCK HILL      CLEAR     79  70  74 SW7       30.01F
6HR MIN TEMP:  78; 6HR MAX TEMP:  91;

CHESTER        CLEAR     79  66  65 CALM      30.02S
LAURENS        CLEAR     79  68  69 SW6       30.03S


...CENTRAL SOUTH CAROLINA...

CITY           SKY/WX    TMP DP  RH WIND       PRES   REMARKS
COLUMBIA APT   CLEAR     83  72  69 SW8       30.00F
6HR MIN TEMP:  83; 6HR MAX TEMP:  94;

COLUMBIA OWENS CLEAR     84  72  67 SW7       30.02S
6HR MIN TEMP:  83; 6HR MAX TEMP:  93;

MCENTIRE ANGB  MOCLDY    80  73  80 SW5       30.01F
6HR MIN TEMP:  79; 6HR MAX TEMP:  92;

ORANGEBURG     CLEAR     78  74  87 SW5       30.03S
6HR MIN TEMP:  78; 6HR MAX TEMP:  90;

SUMTER SHAW    PTCLDY    81  73  76 SW8       29.99S
6HR MIN TEMP:  81; 6HR MAX TEMP:  91;

NEWBERRY       CLEAR     81  70  69 SW6       30.05F
AIKEN          FAIR      79  72  78 SW6       30.07S
MANNING        FAIR      81  72  74 SW7       30.02S
LANCASTER      CLEAR     79  72  78 SW3       30.01F


...EASTERN AND COASTAL SOUTH CAROLINA...

CITY           SKY/WX    TMP DP  RH WIND       PRES   REMARKS
MYRTLE BEACH   CLEAR     81  70  69 W8        30.02F
6HR MIN TEMP:  81; 6HR MAX TEMP:  88;

N MYRTLE BCH   CLEAR     82  73  74 SW7       29.99F
6HR MIN TEMP:  82; 6HR MAX TEMP:  85;

CONWAY         FAIR      77  73  88 SW3       30.01S
MARION           N/A     79  73  83 SW6       30.00S
HARTSVILLE     FAIR      77  70  78 SW3       30.00S
FLORENCE       CLEAR     82  74  76 SW8       30.00F
6HR MIN TEMP:  82; 6HR MAX TEMP:  91;

DARLINGTON     CLEAR     80  74  81 SW6       30.00S
6HR MIN TEMP:  79; 6HR MAX TEMP:  89;

CHARLESTON APT CLEAR     82  76  81 SW7       30.02F
6HR MIN TEMP:  82; 6HR MAX TEMP:  87;

MOUNT PLEASANT FAIR      82  79  89 SW7       30.03S
WALTERBORO     CLEAR     81  81 100 SW7       30.04S
BEAUFORT       CLEAR     83  76  79 SW9       30.04S
6HR MIN TEMP:  83; 6HR MAX TEMP:  88;



...EASTERN GEORGIA...

CITY           SKY/WX    TMP DP  RH WIND       PRES   REMARKS
AUGUSTA BUSH F CLEAR     77  73  87 CALM      30.03S
6HR MIN TEMP:  76; 6HR MAX TEMP:  93;

AUGUSTA DANIEL CLEAR     84  70  62 VRB5      30.04F
6HR MIN TEMP:  84; 6HR MAX TEMP:  94;

WASHINGTON     FAIR      81  73  78 SW5       30.05S
CLAXTON        FAIR      79  75  87 CALM      30.06S
6HR MIN TEMP:  78; 6HR MAX TEMP:  88;

STATESBORO     CLEAR     82  74  77 SW5       30.05S
6HR MIN TEMP:  82; 6HR MAX TEMP:  89;

SAVANNAH       CLEAR     81  74  79 SW7       30.05S
6HR MIN TEMP:  81; 6HR MAX TEMP:  87;



...SOUTHERN NORTH CAROLINA...

CITY           SKY/WX    TMP DP  RH WIND       PRES   REMARKS
CHARLOTTE      MOCLDY    80  74  81 SW3       30.01S
6HR MIN TEMP:  80; 6HR MAX TEMP:  91;

MONROE         CLEAR     81  67  62 SW6       30.00F
6HR MIN TEMP:  81; 6HR MAX TEMP:  92;

ROCKINGHAM     PTCLDY    80  75  84 SW5       29.99F
RUTHERFORDTON    N/A     74  74 100 CALM      30.03F
ASHEVILLE      CLOUDY    74  68  81 CALM      30.11F
6HR MIN TEMP:  73; 6HR MAX TEMP:  81;


$$




USA.gov is the U.S. government's official web portal to all federal, state and local government web resources and services.